Stafford, VA (22554)

6:00 AM EDT on July 24, 2016 (GMT -0400)
! N4NW Stafford, VA Weather | | Change Station

Elev 333 ft 38.46 °N, 77.46 °W | Updated 35 seconds ago

Clear
Clear
73.5 °F
Feels Like 70 °F
N
0.0
Wind Variable Wind from NW
Gusts 1.0 mph

Today
High -- | Low -- °F
--% Chance of Precip.
Yesterday
High -- | Low -- °F
Precip. -- in
Pressure 30.01 in
Visibility 5.0 miles
Clouds Clear
Heat Index 70 °F
Dew Point 72 °F
Humidity 95%
Rainfall 0.00 in
Snow Depth Not available.
6:05 AM 8:26 PM
Waning Gibbous, 77% visible
METAR KRMN 240955Z AUTO 34003KT 5SM BR CLR 22/21 A3001 RMK AO2 T02240212
Pressure 30.01 in
Visibility 5.0 miles
Clouds Clear
Heat Index 70 °F
Dew Point 72 °F
Humidity 95%
Rainfall 0.00 in
Snow Depth Not available.
6:05 AM 8:26 PM
Waning Gibbous, 77% visible
METAR KRMN 240955Z AUTO 34003KT 5SM BR CLR 22/21 A3001 RMK AO2 T02240212

10-Day Weather Forecast

Almanac

Astronomy

Jul. 24, 2016 Rise Set
Actual Time
Civil Twilight
Nautical Twilight
Astronomical Twilight
Moon
Length of Visible Light
Length of Day
Tomorrow will be .
, % of the Moon is Illuminated

Today's Extremes

State Highs State Lows

Community

WunderPhotos

Upload Photos

1,927,042 photos uploaded!

WunderBlog® & News

Nearby

Air Quality

  Air Quality AQ Index Pollutant
Not available.

Snow Depth

Station Depth Elevation

Earthquake Activity

City Distance Mag. Time & Date
Minimum magnitude displayed is 2.5.

Coastal Water Temperatures

Place Temperature

Stations

Nearby Weather Stations

Station Location Temp. Windchill Dew Point Humidity Wind Precip. Elev Updated Type
                   

Watches & Warnings

There are currently no watches in effect.